This demonstration page uses our WeatherBlox Daily Observations layout. Learn more.

Left ArrowRight Arrow

39.12711, -84.51439

Hourly Observations for October 26, 2020

Temp ( °F °C ) Dew Point ( °F °C ) Humidity (%) Winds ( mph kmh ) Pressure ( in mb ) Visibility ( mi km ) Precip ( " mm )
12:53 am 00:53 Cloudy 51 10.6 46 7.8 83 83 N 3 6 30.06 1018 10 16 0.00 0.00
1:53 am 01:53 Cloudy 51 10.6 47 8.3 86 86 Calm 30.06 1018 10 16 0.00 0.00
2:53 am 02:53 Cloudy 51 10.6 47 8.3 86 86 Calm 30.07 1018 10 16 0.00 0.00
3:53 am 03:53 Cloudy 51 10.6 48 8.9 89 89 Calm 30.07 1018 10 16 0.00 0.00
4:53 am 04:53 Cloudy 50 10 48 8.9 93 93 Calm 30.07 1018 10 16 0.00 0.00
5:53 am 05:53 Cloudy 51 10.6 47 8.3 86 86 Calm 30.08 1019 10 16 0.00 0.00
6:53 am 06:53 Cloudy 50 10 47 8.3 89 89 N 6 9 30.09 1019 8 13 0.00 0.00
7:53 am 07:53 Cloudy 49 9.4 45 7.2 86 86 N 7 11 30.12 1020 10 16 0.00 0.00
8:53 am 08:53 Cloudy 49 9.4 44 6.7 83 83 N 5 7 30.13 1020 10 16 0.00 0.00
9:53 am 09:53 Cloudy 50 10 45 7.2 83 83 Calm 30.15 1021 8 13 0.00 0.00
10:53 am 10:53 Cloudy 51 10.6 45 7.2 80 80 Calm 30.17 1022 9 14 0.00 0.00
11:53 am 11:53 Cloudy with Mist and Fog 51 10.6 46 7.8 83 83 W 3 6 30.16 1022 5 8 0.00 0.00
12:53 pm 12:53 Cloudy with Mist and Fog 52 11.1 46 7.8 80 80 undefined N/A 30.17 1022 5 8 0.00 0.00
1:28 pm 13:28 Cloudy with Mist and Fog 52 11.1 46 7.8 80 80 Calm 30.18 1022 5 8 0.00 0.00
1:53 pm 13:53 Cloudy 51 10.6 46 7.8 83 83 NW 6 9 30.17 1022 10 16 0.00 0.00
2:53 pm 14:53 Cloudy 51 10.6 45 7.2 80 80 NNW 8 13 30.17 1022 7 11 0.00 0.00
3:00 pm 15:00 Cloudy 51 10.6 45 7.2 80 80 N 9 15 30.18 1022 10 16 0.00 0.00
3:53 pm 15:53 Cloudy 50 10 45 7.2 83 83 NNE 6 9 30.17 1022 10 16 0.00 0.00
4:53 pm 16:53 Cloudy 51 10.6 44 6.7 77 77 N 8 13 30.17 1022 10 16 0.00 0.00
5:53 pm 17:53 Cloudy 51 10.6 43 6.1 74 74 Calm 30.21 1023 10 16 0.00 0.00
6:53 pm 18:53 Cloudy 50 10 42 5.6 74 74 NNE 7 11 30.20 1023 10 16 0.00 0.00
7:53 pm 19:53 Cloudy 50 10 42 5.6 74 74 N 7 11 30.25 1025 10 16 0.00 0.00
8:10 pm 20:10 Cloudy 50 10 42 5.6 74 74 N 9 15 30.26 1025 10 16 0.00 0.00
8:53 pm 20:53 Cloudy 49 9.4 42 5.6 77 77 NNE 5 7 30.25 1024 10 16 0.00 0.00
9:53 pm 21:53 Cloudy 49 9.4 42 5.6 77 77 N 3 6 30.26 1025 10 16 0.00 0.00
10:53 pm 22:53 Cloudy 49 9.4 42 5.6 77 77 N 6 9 30.28 1025 10 16 0.00 0.00
11:53 pm 23:53 Cloudy with Light Rain 48 8.9 43 6.1 83 83 NE 5 7 30.27 1025 8 13 0.01 0.25

Powered by AerisWeather